Theta_e
293 288 287 285 288 288 289 289 289 289 289 287 287 285 285 285 288 289 289 291 291 290 288 289 288 288 290 292 294 294 292 290 290 292 294 295 296 296 295 295 296 296 298 299 299 299 300 301 306 310 312 314 315 317 318 319 320 322 323 321 321 322 323 323 322 321 321 319 316 314 320 322 322 322 321 321 322 324 327 329 331 331 332 332 331 330
291 287 287 288 289 289 290 289 289 289 288 289 285 285 286 285 287 289 291 292 289 290 285 284 285 288 289 290 291 292 289 290 292 292 292 294 295 296 296 296 296 297 296 297 297 297 297 299 300 305 309 309 312 314 317 318 320 321 322 321 322 321 321 323 323 323 322 322 322 321 320 321 320 318 318 320 320 322 322 324 328 329 331 332 331 328
288 288 290 291 290 289 288 288 289 289 288 285 287 283 284 287 286 289 289 289 290 289 287 283 287 290 291 291 292 292 293 294 292 293 295 294 294 295 295 295 296 296 297 296 296 296 297 299 299 301 306 310 314 315 316 318 319 319 320 321 321 321 321 322 322 322 322 323 321 320 315 318 309 310 313 313 314 315 319 320 323 327 329 330 331 330
288 286 291 291 290 290 288 288 288 287 286 284 284 285 285 283 287 286 287 287 290 289 287 286 287 291 292 290 292 294 293 293 294 293 294 294 295 295 296 297 297 296 297 297 297 297 296 297 297 297 301 307 310 310 311 314 316 318 319 320 320 320 320 321 321 319 320 319 314 313 308 311 314 311 307 309 309 313 315 317 319 323 327 329 330 330
287 290 291 290 290 291 290 288 288 288 287 285 282 282 282 288 288 287 288 288 285 289 286 286 286 288 282 283 284 286 287 290 291 291 292 293 294 296 296 295 295 296 297 297 297 295 295 297 298 299 301 302 306 309 311 314 316 318 318 319 319 319 319 319 317 316 313 312 309 306 306 306 307 307 306 307 308 312 316 318 317 321 323 327 328 329
289 288 291 291 289 289 290 289 287 287 286 284 285 286 286 285 288 289 285 286 281 281 283 287 279 277 280 283 284 289 286 286 285 287 289 290 290 291 293 295 295 295 295 295 297 296 295 298 298 296 297 299 303 307 309 312 315 316 316 316 315 315 315 316 314 315 313 314 314 309 310 309 307 310 308 311 313 312 314 317 319 315 319 323 325 327
288 292 292 292 289 287 288 286 288 288 283 285 287 287 285 286 287 286 288 284 279 279 286 284 281 278 281 284 286 286 283 287 288 287 289 289 291 291 293 293 293 294 295 294 295 295 296 297 297 297 297 299 300 304 305 304 308 310 311 313 313 314 314 314 312 312 312 312 312 313 315 314 313 313 312 310 307 310 309 308 314 318 317 319 322 323
291 291 289 288 288 287 287 288 288 287 285 283 285 287 287 288 288 287 284 286 280 279 283 281 278 278 280 283 283 283 285 287 289 291 291 292 289 290 291 292 293 294 293 295 296 297 297 298 299 300 299 299 300 299 300 302 303 306 308 310 311 311 311 312 312 311 313 314 312 311 312 312 313 312 313 309 306 303 305 309 310 311 315 318 320 321
291 289 288 287 284 284 286 284 290 285 284 284 287 287 286 287 285 284 282 281 283 282 281 279 283 281 278 282 285 284 287 286 286 289 289 289 289 290 289 290 291 292 292 294 296 297 298 298 298 298 298 298 298 298 300 302 303 304 304 306 306 308 309 310 310 310 310 313 312 312 312 311 311 311 310 302 303 306 304 307 308 309 312 314 317 319
291 291 289 288 286 286 287 288 287 289 290 291 289 288 287 286 285 282 280 284 279 279 276 279 282 277 277 281 282 281 286 284 285 287 288 288 288 293 294 292 291 293 294 294 294 295 296 296 296 297 298 297 298 297 298 299 299 300 300 303 304 306 307 308 309 309 309 310 310 310 310 311 311 306 304 302 304 304 303 306 307 307 308 311 314 316
291 293 293 291 289 287 288 289 287 289 290 290 288 289 286 283 281 279 279 277 277 274 275 279 281 281 278 280 281 284 286 284 285 284 286 288 291 294 294 293 294 295 294 294 294 295 293 293 294 295 297 297 297 296 297 298 299 299 301 302 304 305 306 306 308 308 309 309 309 311 310 310 310 306 305 303 303 303 302 305 306 306 307 308 312 314
289 290 292 290 292 289 289 290 288 288 288 290 285 280 281 280 279 277 273 276 274 269 274 277 280 280 275 277 281 284 284 285 288 290 289 289 290 293 293 294 294 293 293 294 294 296 294 295 295 295 296 296 295 295 296 297 298 298 299 300 302 303 304 305 306 306 308 309 309 310 310 309 309 307 306 305 306 304 304 305 306 305 304 306 308 310
287 288 287 291 293 291 287 289 289 286 286 287 284 283 277 274 271 274 270 275 272 272 280 279 280 280 281 284 286 287 288 288 285 287 291 292 291 292 293 293 293 291 291 293 293 292 293 293 293 295 295 294 294 295 295 296 296 297 297 299 301 303 302 304 305 306 307 307 308 309 309 308 308 307 306 306 306 305 305 305 305 304 305 304 305 308
284 282 288 289 291 293 291 288 286 286 286 285 286 279 275 271 271 266 263 265 268 275 277 280 281 281 279 282 289 292 294 291 288 286 286 289 292 294 296 294 294 292 292 292 292 291 291 292 294 293 293 292 293 293 294 295 295 296 298 298 300 302 301 302 303 305 306 306 308 308 308 308 307 306 306 306 307 306 305 305 305 305 305 305 306 307
276 279 285 287 287 290 290 291 291 287 287 287 283 285 280 271 268 267 266 271 272 272 276 278 277 276 275 286 288 287 290 289 288 288 287 287 288 290 290 293 293 293 292 291 292 294 295 295 294 294 294 292 292 293 294 293 295 295 298 299 300 301 301 301 303 304 305 306 306 306 307 307 306 307 306 306 306 306 304 304 304 305 305 305 306 306
282 279 281 290 289 291 291 291 289 287 287 284 282 281 278 278 276 275 269 270 269 272 273 275 277 277 282 285 286 288 288 290 290 288 286 288 288 289 292 291 290 292 292 292 293 295 295 295 293 294 294 294 293 293 293 294 296 296 299 299 300 301 301 301 301 303 305 305 305 305 305 306 305 304 304 304 303 304 304 304 304 305 305 305 305 304
281 280 285 290 289 291 292 289 290 288 281 283 285 280 282 282 280 273 273 277 274 271 275 272 279 281 282 284 289 289 287 288 287 286 285 285 289 289 290 287 288 290 290 291 292 294 295 293 294 295 295 295 294 294 296 297 297 298 299 299 300 300 300 300 301 302 302 304 303 304 304 304 304 304 304 305 304 303 303 303 304 304 304 303 303 303
282 277 285 287 287 290 289 289 289 288 285 285 281 283 284 285 282 278 274 267 266 271 273 274 277 276 278 279 281 284 286 289 285 285 286 287 286 289 292 290 291 291 291 290 292 293 294 294 295 295 296 296 296 296 295 296 296 297 299 299 299 299 300 300 301 301 301 302 302 303 303 304 304 305 304 304 304 302 302 302 302 301 301 302 302 302
285 280 282 285 286 288 288 292 290 289 289 284 281 285 286 278 279 278 273 271 268 266 268 273 274 276 280 282 281 283 284 285 285 286 288 290 290 291 291 291 289 288 291 292 293 293 293 294 295 296 296 296 296 296 296 295 295 296 296 297 298 300 300 300 301 300 300 301 303 304 303 302 303 303 303 303 301 300 301 302 302 301 302 300 299 300
287 280 279 285 287 288 287 288 283 285 290 290 289 287 284 280 276 276 277 272 274 269 267 272 275 280 281 280 283 287 287 289 286 286 287 290 291 291 291 290 289 290 291 291 291 293 294 294 294 295 295 295 295 296 296 295 293 295 296 296 297 298 297 297 298 298 299 299 300 302 300 300 302 302 302 301 300 300 301 302 301 301 298 300 298 299
284 282 276 282 283 286 284 285 284 287 285 286 286 284 286 282 283 280 279 275 275 264 264 268 271 275 277 283 285 286 286 286 286 290 288 291 291 290 289 290 291 290 291 292 291 292 293 295 295 293 292 293 291 290 291 292 295 296 295 296 296 297 298 298 298 297 299 297 299 298 299 300 299 299 299 298 299 299 300 300 299 300 299 294 297 296
282 281 276 281 283 282 282 285 287 290 292 289 288 286 287 282 278 275 276 279 272 274 271 266 275 279 281 284 286 284 284 286 287 289 288 290 291 291 291 291 290 294 294 294 293 293 294 294 293 292 289 287 288 291 290 293 291 292 294 296 296 296 297 298 297 297 298 297 298 298 299 298 296 297 296 297 297 297 298 297 297 296 292 295 295 293
287 281 280 276 282 286 286 287 287 287 287 287 287 285 287 285 282 276 273 274 274 277 274 272 269 282 287 287 285 289 289 288 286 287 289 290 290 290 291 292 293 293 293 293 294 293 294 294 293 292 292 291 291 292 289 289 291 294 293 293 293 294 297 297 297 296 296 297 297 297 297 296 296 295 294 295 296 295 295 294 292 291 294 294 292 291
291 278 277 279 278 278 284 285 286 285 289 287 286 283 285 285 283 282 277 277 280 275 276 274 273 281 286 285 288 289 286 286 287 287 290 291 291 292 292 292 293 294 294 295 297 298 297 296 295 295 295 296 294 291 293 293 292 293 293 294 293 294 296 295 295 294 294 296 296 296 293 295 294 292 293 294 295 295 294 292 292 291 292 293 291 292
283 280 282 273 272 277 278 283 285 284 286 282 282 283 285 284 280 277 275 273 277 277 279 276 275 282 286 285 285 283 287 288 287 288 288 292 292 292 292 293 293 292 294 296 296 296 296 297 297 298 298 295 293 292 292 292 293 293 294 293 294 296 296 295 293 293 295 294 295 293 293 293 292 292 293 294 294 293 293 291 291 290 292 292 292 292
287 281 282 276 275 274 271 275 276 278 283 282 280 282 286 287 283 282 280 278 277 277 279 276 280 286 286 285 287 286 285 287 288 288 290 288 289 291 291 290 291 293 295 294 295 296 297 296 296 297 297 297 294 293 292 292 292 293 293 294 294 295 295 295 291 293 294 294 294 295 293 293 292 293 293 293 293 293 292 291 290 291 290 291 293 292
283 282 284 284 282 280 282 280 281 283 281 283 281 285 285 285 286 286 280 278 280 280 276 280 284 286 287 286 287 288 286 289 289 289 291 291 288 287 286 287 290 291 292 293 293 294 293 295 297 297 297 296 294 291 292 292 293 293 293 293 293 293 294 294 292 293 293 294 293 295 294 294 294 294 294 293 293 292 291 291 290 290 291 290 291 292
281 282 284 284 283 283 282 282 283 286 286 285 284 283 284 285 284 285 284 283 286 278 280 285 284 283 287 289 286 286 287 286 287 288 288 287 287 291 292 289 290 289 290 291 291 293 294 295 295 295 296 296 297 296 295 294 293 294 294 294 294 291 291 293 291 292 292 293 293 294 295 295 295 294 294 293 292 292 291 291 290 290 290 289 290 291
283 283 283 284 283 283 283 285 285 285 284 283 282 282 283 283 283 283 285 287 285 283 282 286 283 283 287 290 288 288 289 290 290 289 289 291 292 290 290 292 293 292 292 291 292 292 293 294 295 295 295 295 295 295 296 296 297 296 295 293 293 290 291 290 290 291 291 292 292 294 296 296 295 293 292 292 291 291 291 291 290 289 289 289 290 290
288 284 283 283 282 283 284 283 284 285 284 283 282 283 284 283 284 285 285 286 284 283 284 285 282 284 287 290 290 289 289 291 293 292 291 291 291 291 290 292 292 292 291 292 292 293 293 293 293 293 293 293 294 294 295 296 297 297 297 297 296 292 291 287 289 290 291 291 292 294 294 294 293 293 292 290 291 292 291 290 289 289 289 289 289 289
290 285 288 285 283 282 284 284 283 283 284 284 284 284 285 286 285 285 284 284 284 283 285 286 285 286 292 291 292 294 293 293 292 291 293 292 291 290 291 291 291 291 291 292 292 292 292 292 292 292 292 293 293 294 295 296 296 296 296 296 296 295 293 288 289 289 290 291 292 293 293 292 293 292 291 291 291 290 290 289 288 288 288 288 288 288
290 283 284 284 283 283 285 285 285 285 284 285 286 287 287 286 283 283 283 284 284 285 285 283 283 286 292 290 293 292 291 291 292 292 292 292 292 290 289 288 289 290 291 292 292 292 292 292 292 293 293 293 293 293 294 295 296 295 295 296 296 296 292 289 288 290 290 291 291 291 292 291 291 290 291 290 290 290 288 287 287 288 288 288 287 287
288 286 284 284 283 283 287 285 285 284 284 283 284 287 289 288 288 288 288 287 288 289 285 283 285 291 293 290 290 292 292 290 290 290 292 291 290 290 289 289 290 291 291 291 291 291 291 292 293 293 293 293 294 294 295 294 293 294 295 295 296 294 293 292 290 290 291 291 291 291 290 290 290 290 290 290 289 289 288 287 288 288 288 288 288 285
288 287 285 286 282 283 281 282 284 283 278 280 291 292 292 290 290 287 288 290 291 290 288 291 291 292 291 292 291 291 292 291 290 291 291 291 290 289 289 288 289 289 290 290 290 290 291 292 292 292 292 292 292 293 293 292 292 293 293 293 293 293 294 293 293 291 291 291 290 290 289 289 289 289 289 289 288 287 288 287 288 288 288 287 286 286
286 287 285 285 283 281 277 282 281 276 279 290 292 292 294 293 292 290 291 292 292 292 291 292 293 293 294 294 295 292 289 289 288 289 290 289 290 289 288 288 288 288 289 289 291 292 292 292 292 292 291 292 291 290 290 291 292 292 292 292 292 293 293 293 292 292 291 290 290 288 288 288 288 288 289 288 287 287 287 288 288 287 287 287 286 286
285 286 282 283 284 282 279 282 276 277 286 286 286 288 286 289 289 287 286 288 290 291 292 292 293 295 295 294 289 286 286 285 285 285 288 288 289 288 287 289 290 288 288 290 289 291 291 291 291 291 291 291 290 290 290 290 290 289 290 290 290 291 291 290 290 291 291 290 289 289 288 287 288 288 287 287 286 287 287 287 287 287 285 285 284 285
287 284 283 283 286 281 282 281 281 285 284 285 285 284 286 284 285 286 283 286 289 291 292 292 293 294 291 285 284 283 283 283 285 287 285 287 288 287 290 288 289 289 289 289 289 290 291 290 290 290 289 288 288 288 289 289 289 288 288 288 290 290 289 289 289 290 290 289 289 288 287 286 287 287 287 286 286 287 287 287 286 285 284 284 283 283
287 286 283 284 282 286 282 279 279 280 276 282 285 287 287 287 289 289 288 284 285 284 286 290 290 287 286 283 282 283 283 287 284 285 288 288 288 289 287 287 286 287 287 288 289 288 288 288 288 288 287 287 287 287 288 287 287 286 286 287 288 288 289 289 289 290 289 289 289 287 286 285 286 287 287 286 286 287 286 285 282 284 283 284 283 282
288 288 284 285 283 283 281 278 279 277 280 286 284 286 285 285 290 287 286 282 284 282 282 284 284 285 284 286 284 282 283 281 282 282 284 287 287 287 287 287 286 287 287 287 287 288 288 288 287 287 286 287 287 289 287 286 285 284 285 286 287 287 287 288 289 289 289 289 288 287 285 285 285 286 286 286 286 285 285 284 284 281 280 281 280 281
286 285 284 283 280 282 281 280 277 282 280 284 284 284 286 285 290 288 277 277 285 282 281 282 283 284 283 282 283 280 280 279 280 284 286 287 286 286 285 287 288 288 288 288 287 286 287 286 285 286 286 286 288 287 286 285 284 284 285 286 286 286 286 287 288 288 287 286 286 285 284 283 284 284 285 285 284 283 283 280 278 278 279 277 279 279
284 284 284 280 282 282 283 281 282 282 285 282 284 286 284 287 287 278 276 282 284 283 281 283 283 283 281 282 282 282 282 284 286 286 285 286 286 287 287 286 286 286 287 288 288 288 285 284 285 286 286 286 287 285 284 284 283 284 284 284 284 285 286 287 286 285 285 285 284 283 283 282 281 283 282 282 282 280 277 278 279 278 278 278 278 277
284 285 285 285 282 281 281 279 279 282 282 284 282 284 284 285 278 277 284 283 284 283 281 282 282 280 282 282 282 284 284 284 283 283 284 285 285 286 286 286 287 287 287 287 287 286 286 286 285 285 286 284 284 283 282 282 282 284 284 283 284 285 285 285 284 284 283 283 282 281 279 278 278 278 279 277 277 276 276 275 277 278 278 278 278 278
283 283 281 282 284 283 280 278 278 273 283 285 286 283 285 281 281 285 282 282 282 283 282 281 281 281 282 282 282 283 283 283 284 284 284 284 284 285 286 286 286 287 287 288 288 289 287 286 286 286 286 287 286 283 281 278 280 282 283 283 284 285 283 283 282 281 281 280 279 277 275 274 276 276 276 276 276 276 275 275 276 276 278 278 278 279
287 281 281 284 286 278 279 276 277 284 286 285 286 282 282 281 284 283 286 283 281 281 282 282 282 282 282 284 284 283 282 283 283 284 284 285 284 285 285 286 286 286 287 287 286 287 286 286 287 286 286 286 286 285 282 280 281 282 282 283 284 283 282 280 280 278 278 277 275 274 274 274 274 275 275 274 274 275 275 275 275 276 278 279 279 279
285 282 284 281 287 282 280 282 284 284 284 285 281 282 285 285 283 283 284 285 284 283 282 283 283 283 283 283 283 283 283 284 283 283 283 285 285 285 286 286 286 286 286 286 286 286 285 285 285 285 285 286 286 286 284 278 280 281 281 283 281 281 281 279 278 277 277 275 274 273 272 273 273 274 274 274 276 276 275 274 274 276 275 278 279 279
280 282 279 281 282 282 281 282 282 281 283 285 284 283 283 284 283 283 285 286 287 286 285 286 287 287 286 285 286 286 286 284 284 284 284 284 285 285 285 286 286 286 286 286 286 286 286 285 284 284 284 285 285 284 284 282 278 280 282 283 281 280 279 277 276 276 275 272 273 272 272 273 273 273 273 274 274 275 276 276 276 276 276 277 278 279
278 280 280 279 279 283 279 282 282 284 282 281 282 281 282 285 286 287 287 287 286 285 284 282 284 284 285 285 285 284 283 283 283 283 284 284 284 284 285 285 285 285 285 285 286 285 285 284 284 284 284 284 285 284 283 281 280 280 280 280 280 278 276 275 275 276 274 272 271 271 272 272 272 273 272 273 273 273 274 275 276 277 278 279 279 279
278 280 281 277 278 281 278 281 282 282 281 281 281 284 285 285 286 283 283 282 282 282 283 282 282 283 283 283 284 282 283 282 281 282 283 283 284 284 285 285 285 285 286 286 286 286 285 285 284 283 283 283 284 283 281 280 279 279 278 277 277 275 274 276 276 276 274 271 271 272 271 272 276 274 272 272 272 274 273 274 276 278 278 279 279 279
278 282 275 277 280 277 278 279 278 280 281 280 280 280 281 282 281 281 281 281 282 282 282 282 282 282 281 282 281 281 281 282 281 282 282 282 283 283 284 284 284 284 284 284 284 284 284 283 282 282 282 282 283 281 279 278 278 277 276 276 275 273 274 276 276 275 272 271 272 272 275 273 273 273 273 273 273 273 275 277 277 278 277 278 279 281
280 278 277 278 273 274 279 279 277 277 276 280 279 280 279 280 281 281 280 281 280 279 279 279 280 280 280 281 282 281 279 281 281 281 281 281 281 282 282 282 282 282 282 283 283 282 282 281 281 281 281 281 281 280 279 278 277 276 275 274 273 272 275 276 275 273 273 272 272 271 274 274 273 273 274 274 273 274 276 282 282 280 279 279 282 282
281 280 278 275 277 275 279 278 280 281 279 279 280 278 278 279 280 280 279 279 277 277 277 278 278 278 278 278 279 279 278 279 279 280 280 280 280 281 281 281 280 281 281 281 281 281 281 281 281 280 280 281 281 280 279 277 276 275 274 273 273 272 274 274 275 275 274 275 274 275 274 273 273 274 274 274 275 276 277 278 281 283 283 282 282 282
Wind_Speed
1 4 6 7 9 8 5 7 6 3 6 4 4 4 2 2 1 2 1 2 1 0 5 6 5 6 10 11 12 10 5 3 7 10 11 10 10 10 9 10 11 11 15 6 6 6 7 9 9 7 6 7 7 7 8 9 10 11 13 11 13 11 9 9 9 9 10 10 7 6 11 13 10 10 8 8 8 8 8 9 10 10 10 10 10 10
4 4 6 7 7 8 8 4 6 5 3 6 6 5 1 0 1 1 0 1 1 1 2 1 4 9 11 11 12 9 3 10 11 11 11 13 11 11 11 13 12 13 6 5 5 5 5 7 7 6 7 6 8 9 9 11 13 12 10 12 12 8 9 10 11 11 10 11 11 11 11 10 8 8 9 10 8 8 7 8 9 9 9 11 11 9
2 6 8 8 4 2 2 5 3 6 4 2 5 3 4 1 2 3 2 2 1 2 7 3 5 12 10 10 12 10 13 8 6 8 11 10 10 10 10 11 12 8 12 7 7 5 6 7 7 6 7 8 12 12 13 12 10 9 10 10 9 9 10 10 10 10 11 10 7 8 5 7 4 3 4 4 4 5 7 8 9 9 10 10 11 11
2 5 10 3 4 4 4 4 5 5 5 5 4 1 3 2 1 2 3 2 2 1 2 2 7 13 8 6 11 13 6 6 8 8 10 9 11 12 14 11 10 11 12 11 10 9 6 6 5 5 6 10 8 7 6 7 10 9 10 9 10 10 10 9 10 10 8 6 4 2 2 4 5 5 4 3 2 5 6 9 8 9 11 11 11 12
7 1 0 4 3 4 5 1 6 5 3 2 3 3 2 1 1 3 1 0 1 1 2 4 6 11 4 4 3 3 2 4 4 3 6 9 9 11 8 7 9 12 10 11 9 7 6 6 8 11 11 6 8 9 10 10 11 10 13 12 12 10 10 9 8 8 5 5 4 3 3 3 2 2 3 4 5 7 8 7 9 11 9 10 11 10
4 3 1 5 3 2 4 1 3 8 1 2 2 4 2 3 4 0 3 2 7 2 3 2 4 5 4 5 8 10 5 5 3 5 6 7 6 6 9 15 10 7 7 9 10 8 5 8 6 5 5 7 9 10 10 10 10 8 9 8 8 6 6 8 8 8 7 8 8 7 7 6 5 7 6 11 14 9 9 12 6 4 8 9 9 10
4 2 1 4 4 3 3 2 2 3 4 1 3 3 4 6 5 3 0 3 1 1 1 3 2 8 5 5 6 6 5 10 8 2 7 8 9 6 8 6 5 7 7 6 7 6 5 7 6 7 7 9 9 11 6 5 6 6 6 7 8 8 7 7 7 8 8 7 8 11 12 10 11 12 10 7 4 6 6 3 6 7 6 8 9 9
1 1 5 4 4 3 3 1 2 6 6 1 1 4 5 6 5 2 2 2 3 1 4 3 3 2 10 6 3 4 4 8 9 11 11 10 6 8 7 6 6 5 6 6 7 7 7 6 8 10 10 8 11 4 4 5 5 7 8 8 8 7 8 7 7 9 9 10 9 9 9 10 11 12 12 7 6 3 4 7 7 6 7 8 8 9
2 2 3 3 2 3 4 3 2 3 4 2 2 6 3 5 3 5 3 3 0 2 7 3 0 0 5 8 3 2 5 7 8 11 9 9 7 7 7 7 6 5 4 5 6 7 7 6 7 6 5 6 2 4 7 7 6 5 5 6 5 7 7 7 8 9 9 9 10 10 9 10 10 10 8 4 5 5 5 7 6 7 7 7 8 8
3 1 3 7 6 5 2 1 2 5 4 1 4 6 6 6 6 3 3 2 1 1 6 2 2 2 9 7 5 2 1 6 7 7 8 6 6 7 8 6 4 4 3 2 4 5 6 5 4 4 2 2 5 3 2 2 3 4 4 5 6 7 7 7 8 9 9 9 9 10 11 13 11 7 5 4 6 6 5 8 8 7 7 7 8 9
1 3 5 3 3 2 4 0 2 0 1 6 5 7 6 8 4 3 7 2 2 1 7 7 2 2 6 6 5 2 3 3 1 3 5 6 6 6 5 4 3 3 4 4 3 2 3 3 3 2 4 2 1 1 2 4 4 5 5 6 7 7 6 7 9 9 10 9 9 11 12 13 13 9 8 7 7 6 5 9 8 8 8 7 9 8
2 1 1 1 3 3 3 4 4 2 2 5 2 3 5 2 7 3 4 5 1 5 5 1 2 2 6 6 5 7 4 4 2 1 5 6 5 5 4 4 3 3 4 4 3 3 4 3 3 1 1 2 2 2 2 2 2 3 4 4 6 5 6 6 7 8 10 10 11 11 11 13 12 10 10 12 12 10 11 10 9 7 5 7 6 7
1 2 2 5 3 6 3 8 4 5 3 6 6 7 4 2 5 2 3 2 5 5 0 2 2 1 12 9 7 10 9 4 3 4 4 3 4 3 3 3 3 4 4 4 4 4 4 3 3 1 2 2 3 2 3 3 2 3 3 4 6 8 5 7 7 9 10 10 11 12 11 11 9 10 11 12 12 9 10 8 8 6 8 6 7 9
3 2 2 3 3 3 5 9 2 2 0 6 7 6 5 1 1 4 4 2 5 5 5 1 1 5 4 7 13 17 11 1 5 4 4 2 2 3 3 5 5 5 4 4 4 4 4 4 4 4 4 3 2 2 2 2 3 4 4 5 6 8 5 6 7 9 10 12 11 10 10 10 9 10 10 11 11 9 8 7 9 9 10 10 11 10
3 3 6 4 2 3 4 7 12 9 9 9 2 9 9 8 5 3 3 5 5 4 3 4 1 7 2 0 1 3 8 6 3 3 3 4 5 4 3 4 4 5 5 4 4 5 5 5 5 5 4 4 4 3 4 4 4 4 5 5 7 7 6 6 8 7 10 10 9 9 9 9 8 10 10 10 9 9 9 8 9 10 8 10 9 9
7 4 5 4 0 6 8 2 3 5 2 0 3 5 5 6 6 1 5 2 1 1 2 1 6 4 4 3 8 5 7 6 1 4 2 3 5 4 2 3 4 5 4 5 5 6 6 5 4 4 5 5 5 5 4 5 4 5 7 6 7 9 7 7 7 8 9 9 7 7 9 10 9 8 8 8 7 8 8 9 10 10 9 9 7 7
3 4 1 3 4 5 5 2 1 3 6 4 4 5 6 2 7 5 1 1 1 3 9 2 8 7 7 6 8 8 2 5 2 3 6 3 1 2 1 3 4 5 5 5 4 4 6 5 5 6 6 5 5 5 7 7 6 7 7 7 8 8 6 6 7 9 7 7 7 9 9 8 9 9 11 11 10 10 8 8 9 9 9 8 8 7
10 5 1 4 5 0 0 1 2 2 3 7 3 8 1 2 4 4 4 2 1 4 7 2 8 3 2 8 4 3 1 8 1 2 1 1 0 1 1 3 4 5 4 4 6 6 6 6 6 6 6 6 7 7 6 7 6 6 6 7 8 7 9 8 8 8 7 7 8 8 8 9 10 10 11 10 10 7 8 9 8 7 8 9 8 8
6 0 1 1 1 5 3 1 1 1 1 3 3 3 6 3 2 2 3 3 1 3 6 4 3 5 9 8 2 1 1 2 1 2 4 2 2 1 3 5 5 5 4 3 4 4 5 5 6 6 7 6 6 6 7 6 5 6 6 6 7 10 9 9 8 7 6 7 7 7 8 8 9 9 9 7 7 6 9 11 9 10 10 6 7 7
1 5 2 1 3 1 1 4 9 3 2 1 3 3 1 3 2 5 6 4 5 4 0 8 2 10 5 7 8 8 7 9 3 5 5 1 0 1 2 3 4 3 2 2 4 4 5 5 5 6 6 6 6 6 6 6 5 7 7 7 9 7 6 6 8 7 8 7 7 8 6 8 8 8 8 7 7 8 10 10 9 9 8 9 6 8
3 2 5 1 2 1 3 4 9 10 8 3 2 3 1 1 2 4 1 4 4 4 5 3 7 7 6 7 9 9 7 3 2 8 4 0 0 1 1 1 1 1 2 3 3 4 5 6 6 6 5 6 5 5 4 4 6 7 5 7 7 9 9 10 9 7 9 6 8 8 10 9 7 8 7 7 8 9 11 9 8 9 8 5 8 7
2 2 7 2 1 5 7 3 6 12 13 11 13 11 11 8 4 4 7 2 1 2 5 2 12 6 6 1 6 6 5 6 7 6 3 1 0 0 1 1 2 2 2 2 3 3 5 6 9 6 4 3 4 6 6 5 4 5 6 6 6 6 9 9 9 8 7 6 8 9 10 9 7 7 6 8 9 10 11 9 8 7 5 8 7 7
5 3 8 4 8 10 5 0 3 4 2 1 3 6 5 3 5 5 5 4 1 3 4 3 1 13 9 7 5 5 7 6 5 4 4 2 1 2 2 1 1 1 2 2 1 3 5 5 4 5 6 6 5 6 5 4 5 7 6 6 6 7 12 9 8 6 6 7 8 10 9 7 8 7 8 9 10 11 10 8 6 5 7 8 6 6
6 3 3 1 2 4 3 3 1 2 1 2 1 2 5 5 6 7 5 7 7 1 1 2 3 8 2 1 5 6 5 3 3 4 3 1 1 2 3 4 3 6 7 7 9 11 13 12 9 9 8 8 7 6 7 6 5 6 7 7 6 9 13 8 7 6 7 8 9 8 6 8 8 7 9 10 11 11 10 8 7 6 8 8 6 8
5 4 8 2 1 3 4 3 1 2 1 2 2 3 4 3 3 2 4 1 2 7 7 6 11 12 1 1 3 2 1 1 1 0 1 7 6 7 10 10 10 11 12 14 14 13 13 11 11 11 11 8 7 7 7 7 7 6 8 6 8 10 10 8 6 7 8 7 9 8 8 9 8 9 11 12 9 10 9 8 7 7 9 7 8 8
5 5 8 7 10 10 8 10 10 6 7 3 2 4 6 9 6 4 5 2 6 5 7 6 10 11 1 2 2 4 4 4 6 7 7 6 6 6 6 5 7 8 8 9 10 10 11 10 10 11 10 9 7 6 7 7 7 7 7 8 7 9 8 9 5 7 7 7 9 10 9 11 9 12 13 11 10 11 9 8 8 8 8 8 9 8
3 1 6 10 12 12 11 7 4 5 4 6 4 9 6 6 9 7 4 5 13 7 5 8 12 16 12 3 2 2 4 1 4 5 5 5 4 2 3 5 5 5 6 7 7 8 8 10 12 12 12 10 8 6 6 6 7 7 7 9 8 8 8 8 6 7 7 8 8 9 10 11 12 13 12 13 13 9 8 9 9 9 10 8 9 9
2 3 6 5 6 5 5 3 4 8 10 9 9 7 8 8 9 11 11 14 8 3 13 11 8 9 21 12 5 3 2 3 3 1 4 3 3 5 5 4 6 6 7 6 7 9 9 10 10 11 11 12 12 11 10 7 7 7 8 9 8 6 6 8 7 7 7 8 8 9 12 13 13 10 11 9 8 8 9 9 9 10 8 7 10 10
5 6 3 4 3 3 5 5 6 3 4 4 5 6 6 7 7 13 16 17 8 11 18 11 5 11 19 15 3 7 7 6 3 3 5 4 4 5 6 7 7 7 6 6 7 7 8 9 9 11 11 12 12 13 13 12 11 9 7 6 7 6 8 7 6 7 8 8 9 12 13 12 10 8 8 8 8 9 10 10 9 8 8 8 9 9
4 2 3 1 2 2 4 4 3 5 1 3 4 6 6 9 12 14 15 10 7 7 6 5 3 11 12 13 2 4 4 6 7 4 1 0 1 3 6 8 8 7 6 6 6 6 7 8 8 9 9 10 10 11 11 12 12 12 11 12 10 7 6 3 6 7 8 9 12 12 12 11 9 9 8 8 11 11 9 8 7 7 8 9 8 8
4 3 5 2 1 4 6 4 4 4 4 3 4 6 9 10 11 10 5 2 3 5 9 12 11 16 15 4 7 7 7 7 7 5 2 1 3 5 6 6 6 6 5 5 5 6 7 7 7 7 7 8 9 9 10 10 10 10 12 12 12 10 6 3 6 7 8 11 11 11 10 9 10 8 9 10 9 8 8 8 7 7 8 8 7 8
1 2 2 2 1 3 4 4 6 4 3 5 7 9 12 13 10 5 6 6 5 10 8 4 7 14 14 1 8 2 9 4 6 6 4 2 1 3 1 4 4 5 5 6 7 7 8 8 9 9 9 9 9 9 8 10 11 10 12 12 12 11 7 4 5 7 9 10 10 9 9 9 9 8 10 8 10 9 7 6 7 8 8 8 8 7
2 3 2 3 3 7 6 0 2 6 3 4 11 19 18 9 9 8 6 7 12 11 7 7 14 12 9 1 3 10 4 2 2 3 0 1 2 6 5 4 4 5 5 5 6 6 7 8 8 9 9 9 10 11 12 10 10 12 12 13 13 11 11 9 7 8 9 10 9 10 8 8 8 9 9 10 9 7 6 8 8 9 9 11 9 6
4 6 4 4 5 5 5 3 4 4 10 15 13 8 9 17 17 14 14 17 16 11 8 7 8 8 9 10 9 11 10 3 2 2 1 5 6 4 4 3 4 4 5 6 5 5 5 6 7 7 7 8 10 9 10 9 10 12 11 11 11 11 12 10 11 8 10 10 9 9 8 7 8 9 9 7 7 6 7 8 11 10 9 8 7 9
10 10 7 5 4 6 3 6 4 12 12 12 2 7 13 15 12 17 20 16 10 5 5 10 14 16 17 14 13 6 3 1 1 3 7 5 6 4 3 4 4 5 6 7 9 10 9 8 8 8 9 9 9 9 10 12 10 11 12 11 12 12 11 12 10 11 11 11 10 6 8 7 7 9 8 6 6 7 8 9 8 7 7 7 9 10
9 10 4 1 3 3 4 6 9 10 5 2 4 3 3 2 3 1 5 7 8 11 11 14 16 17 15 10 4 0 1 3 1 3 5 5 5 4 3 4 6 5 5 6 6 9 10 11 10 10 11 10 10 11 9 10 9 10 13 11 11 11 10 10 11 12 12 10 9 8 7 6 8 8 7 6 6 7 9 8 8 9 6 6 6 6
9 4 4 5 4 8 6 9 12 6 9 6 6 2 6 5 6 9 9 8 8 9 11 12 14 13 7 1 2 4 2 2 4 4 3 2 1 2 0 2 4 6 6 7 5 7 8 8 8 9 8 8 8 9 10 9 9 10 11 12 12 11 11 10 11 13 10 9 9 9 7 6 7 8 7 6 7 8 8 8 8 6 5 7 7 7
5 10 4 9 5 6 9 8 3 7 11 14 6 1 3 5 8 7 7 6 1 3 3 8 10 6 1 1 3 4 1 0 2 3 5 4 4 6 3 2 4 5 5 7 8 7 7 7 7 8 6 8 9 8 7 7 8 9 11 12 11 11 12 11 13 12 10 11 10 7 6 6 7 8 7 6 8 9 7 5 4 5 5 8 7 8
4 3 2 8 4 5 6 8 7 9 9 3 2 5 4 4 9 6 4 9 2 4 1 4 4 2 1 0 3 3 4 3 5 2 6 7 3 1 5 6 5 5 5 5 6 8 8 8 6 8 9 9 11 10 7 8 8 8 10 11 11 11 12 13 14 12 12 13 10 8 7 6 6 7 7 7 8 6 6 6 6 3 4 5 4 5
6 4 4 6 4 5 5 6 7 3 5 3 2 2 0 5 8 7 5 6 6 4 4 3 3 2 1 1 1 4 3 2 6 5 4 6 5 5 4 8 9 9 8 6 5 6 7 7 7 7 8 9 11 10 9 9 9 9 10 11 8 10 12 13 12 11 11 11 10 9 7 5 6 6 6 8 6 5 6 4 3 4 5 4 4 5
8 4 8 13 10 9 10 6 3 6 4 3 5 5 3 1 2 5 11 3 4 5 4 4 2 3 3 3 2 2 3 3 4 5 5 7 9 9 6 5 5 5 9 10 10 7 5 4 5 8 8 8 8 7 7 7 8 10 10 9 9 12 12 10 10 11 11 10 9 8 7 5 5 7 6 5 5 4 3 4 6 6 6 6 5 5
6 3 1 5 9 10 9 8 7 6 6 7 4 6 4 2 4 8 3 2 10 6 4 5 3 3 5 3 3 3 4 4 4 4 5 6 6 7 7 8 9 8 6 6 8 5 6 6 5 6 6 4 5 5 5 6 9 10 10 9 11 12 9 9 10 10 9 9 8 7 5 5 4 4 4 2 2 3 2 2 4 6 7 6 6 7
9 7 8 11 6 5 3 7 5 9 3 4 7 2 2 6 4 4 4 1 2 6 5 4 3 2 5 2 4 4 4 5 5 5 5 5 6 8 8 9 10 10 11 12 14 13 10 11 10 10 11 11 8 4 3 3 7 9 9 11 14 10 8 9 8 8 7 7 7 5 4 3 2 2 1 2 2 4 3 3 4 4 5 6 6 6
7 6 3 6 7 5 9 8 8 8 2 2 6 7 4 5 2 6 9 7 3 4 5 4 4 4 4 4 4 3 3 4 6 5 6 6 5 7 7 6 6 6 8 8 7 9 10 11 12 11 9 9 9 8 6 5 9 9 9 14 10 7 8 8 7 5 6 6 5 4 3 2 1 1 1 3 3 3 4 3 3 3 5 5 6 6
8 10 6 8 8 9 7 6 2 2 4 1 3 2 4 1 2 6 6 7 6 6 4 5 6 4 5 4 4 4 4 2 3 3 4 8 9 8 10 11 10 10 9 8 10 10 9 10 13 14 14 12 10 10 7 4 7 12 15 12 6 8 9 8 7 5 5 5 4 4 3 1 1 0 1 2 4 5 4 3 4 4 2 4 4 5
3 3 1 4 4 0 1 0 2 1 2 1 1 2 2 3 2 4 5 4 2 3 6 1 1 1 1 2 1 3 2 4 6 7 6 7 7 8 8 9 10 9 10 9 9 10 10 11 11 12 13 15 10 8 10 7 5 11 15 11 8 9 8 7 7 6 6 4 3 3 2 1 1 0 0 1 1 3 5 7 6 5 5 5 5 5
3 1 1 2 2 7 7 4 4 6 1 1 1 2 1 1 2 3 3 1 4 5 5 4 3 3 3 3 3 3 4 4 6 7 7 7 8 8 8 9 9 8 9 12 11 9 10 9 11 14 14 16 14 9 9 9 8 9 11 11 9 8 7 7 6 7 5 4 3 2 1 2 1 0 0 1 2 2 3 5 5 6 5 5 6 5
3 3 3 2 1 6 4 3 3 1 1 2 2 5 4 2 1 4 3 3 4 4 5 4 3 5 2 4 3 3 5 4 4 7 7 7 7 8 9 10 12 12 12 9 11 11 10 10 10 12 13 14 13 10 9 9 10 10 9 9 8 7 6 7 7 8 7 5 2 1 1 2 3 2 1 1 3 4 3 3 5 6 7 7 8 8
3 4 4 4 6 1 2 1 2 2 2 2 3 2 1 0 3 6 6 7 6 7 7 5 6 3 3 2 1 2 4 5 3 5 7 8 8 8 9 10 10 10 11 11 11 10 11 11 12 12 13 14 11 9 10 10 10 8 9 8 7 5 6 8 6 6 6 4 2 2 1 1 1 2 2 2 2 3 4 6 6 6 4 2 3 5
3 6 1 2 1 3 8 6 5 5 4 2 1 1 3 3 6 6 5 8 8 7 6 6 4 4 4 3 2 2 4 6 6 6 8 7 7 8 10 11 11 11 12 9 8 9 10 10 10 12 14 14 11 9 10 10 10 8 7 7 5 4 5 7 7 6 7 5 4 3 2 2 2 2 2 2 2 1 1 1 3 1 4 3 3 5
9 6 6 6 7 7 4 3 6 4 3 3 8 2 3 2 5 8 6 5 5 4 3 4 4 3 3 3 3 4 4 5 9 8 9 8 9 8 9 11 12 13 14 14 14 15 13 12 11 11 13 14 12 12 12 11 10 8 7 6 5 4 6 5 6 6 6 5 5 4 3 3 3 2 2 2 2 1 2 1 2 5 5 4 5 5
Wind_Direction
111 114 169 183 199 199 194 178 174 173 150 116 92 104 169 163 274 279 284 256 140 89 236 237 254 257 267 263 266 268 292 257 251 253 252 252 253 251 250 246 246 246 244 253 234 233 225 224 220 217 201 206 206 207 198 194 198 198 197 186 200 199 187 182 182 183 182 187 187 201 202 211 204 204 200 205 205 203 204 198 200 199 200 197 200 205
64 104 230 216 208 184 196 171 96 75 47 124 117 109 104 109 166 236 211 330 308 151 288 8 309 265 255 267 266 268 281 265 242 242 247 249 245 246 245 250 246 245 274 278 268 248 233 228 221 207 199 190 193 214 201 199 201 199 196 196 200 182 190 193 191 191 194 196 197 194 205 203 196 196 198 208 205 207 201 202 201 201 201 200 201 201
54 178 235 224 202 114 85 140 130 132 122 45 142 156 99 265 239 301 296 312 297 82 263 357 331 283 269 261 266 254 242 245 244 226 239 242 252 249 248 249 255 263 261 259 252 257 241 231 224 202 205 205 207 204 200 205 195 192 196 202 197 191 191 198 195 189 202 203 200 195 196 189 195 225 224 220 202 194 200 203 203 201 201 202 203 200
101 287 241 223 150 104 59 106 115 71 62 107 92 88 226 244 96 291 283 343 349 78 295 342 318 288 285 266 258 259 253 254 244 231 242 230 242 244 240 238 247 251 256 258 247 244 245 242 229 213 214 214 208 206 205 199 197 196 200 199 197 197 197 198 199 200 205 196 181 156 134 171 161 188 184 189 195 203 208 214 203 207 203 201 203 199
186 232 321 128 133 140 124 67 123 136 179 4 121 125 130 167 223 157 253 264 322 28 54 360 317 297 332 342 332 310 287 270 286 296 264 259 242 252 276 286 237 245 249 257 267 254 243 238 224 208 212 195 199 207 201 196 196 196 199 200 194 194 196 198 194 193 174 140 135 100 60 69 82 44 142 183 227 213 211 211 208 211 199 203 203 202
266 264 125 92 83 79 120 95 186 135 175 335 229 171 191 165 136 275 353 59 18 352 335 29 358 301 296 296 259 282 333 310 292 322 281 269 258 245 249 246 254 256 250 244 256 257 236 230 244 246 217 197 211 210 209 200 200 193 198 193 190 188 188 191 188 180 168 180 175 163 171 190 195 212 194 205 212 203 205 213 209 201 206 207 207 203
200 360 129 154 122 96 95 148 222 124 161 102 265 162 159 140 130 129 24 69 337 176 314 57 127 273 304 284 283 292 336 300 319 269 276 284 277 265 247 268 269 248 264 266 267 274 258 236 223 226 211 211 207 221 194 188 195 197 191 188 187 188 190 186 182 173 173 182 189 194 201 205 206 216 226 228 224 201 216 199 203 211 207 213 211 211
96 23 63 54 82 90 111 167 220 130 108 237 242 124 115 104 133 165 110 141 211 251 297 39 111 215 302 286 245 290 323 312 320 312 295 284 298 289 284 274 263 256 240 240 251 253 244 232 210 216 215 205 214 194 159 191 188 191 192 185 190 189 187 187 175 180 183 190 193 199 209 211 216 216 227 204 219 201 182 203 215 210 215 210 213 213
146 175 125 97 77 97 177 207 171 122 115 219 203 136 149 148 155 115 95 113 38 45 285 327 279 271 258 264 300 352 322 303 301 283 287 297 305 303 296 280 273 272 254 229 240 251 248 236 231 234 226 227 211 172 191 193 196 192 188 187 185 191 188 190 183 184 192 195 192 199 202 217 224 224 230 193 203 204 196 210 213 213 217 218 219 218
359 155 213 144 128 183 230 252 206 139 78 259 128 90 87 77 70 96 97 83 343 61 267 253 200 209 277 278 333 326 288 285 266 279 288 299 301 320 331 324 305 300 310 275 252 275 281 270 266 253 263 204 215 214 198 201 169 184 182 192 189 203 192 190 190 191 194 196 189 200 208 216 223 215 225 187 210 211 199 220 216 216 216 216 220 223
242 320 165 86 169 189 141 143 158 208 126 126 79 67 26 37 26 23 61 87 57 290 250 238 272 162 287 269 227 162 218 198 265 303 317 326 352 355 353 341 323 331 339 350 336 331 314 299 268 293 227 257 283 233 196 201 193 191 193 197 204 208 195 192 195 191 198 197 198 207 209 215 220 211 205 209 223 210 212 222 221 215 218 211 219 217
13 358 70 289 93 98 101 87 16 55 61 112 86 119 54 346 12 28 346 36 148 269 266 249 206 133 196 291 273 249 280 236 211 306 323 332 328 330 324 312 310 316 312 319 332 337 344 355 14 22 302 309 283 286 269 265 247 218 213 204 215 218 204 197 196 196 203 200 208 213 211 215 217 205 204 213 219 207 213 215 221 217 219 222 223 221
58 78 271 326 197 129 103 81 349 12 12 79 83 57 115 252 36 297 16 257 221 211 258 322 166 9 236 236 272 278 257 256 172 219 282 321 311 310 294 281 286 289 303 303 302 324 332 324 312 312 292 331 353 351 344 319 296 272 244 225 221 230 208 205 197 201 206 206 212 212 214 218 212 210 211 216 222 210 214 212 220 208 220 216 221 222
269 288 342 284 15 219 132 123 155 94 194 107 141 141 109 139 149 245 277 242 305 288 265 299 292 265 256 272 233 242 259 170 201 225 247 233 241 285 282 310 312 304 291 297 306 300 292 291 303 319 328 328 311 312 307 284 258 243 238 232 227 238 214 211 207 209 209 215 215 212 215 215 206 217 213 219 221 216 212 206 216 214 215 215 220 215
129 306 266 136 235 175 179 164 174 172 171 205 112 153 179 148 158 208 192 212 219 212 290 281 60 233 90 234 297 232 250 261 270 242 255 234 220 241 291 282 291 299 319 326 301 287 269 269 261 266 264 264 252 252 261 250 236 232 241 232 233 243 233 216 218 215 220 223 219 218 218 217 211 217 217 222 219 214 212 211 216 221 218 221 224 219
206 205 261 224 277 154 178 244 110 91 66 261 150 80 86 227 141 159 208 154 228 329 339 232 216 195 165 273 284 236 280 292 192 281 322 321 335 352 345 320 302 305 307 297 297 291 276 260 271 279 280 268 263 252 249 245 235 227 233 227 230 231 232 223 225 227 225 228 224 221 219 221 217 220 223 228 220 222 212 213 213 222 218 222 221 220
52 260 299 308 46 169 188 119 187 143 182 230 115 207 210 154 102 89 46 4 102 34 255 153 301 288 299 319 286 322 331 267 360 2 20 317 298 319 312 293 306 314 319 318 299 282 292 300 272 251 249 257 253 249 237 234 225 226 229 229 237 239 240 233 229 233 230 233 228 229 225 222 221 219 221 223 222 219 216 216 219 220 221 218 216 216
150 230 308 120 218 315 186 138 101 30 149 96 187 235 190 122 113 135 218 347 56 199 267 100 237 299 6 287 321 23 346 292 4 41 352 358 331 279 267 289 316 322 310 290 286 287 284 282 278 269 253 241 244 243 246 240 232 234 233 230 236 241 238 238 233 234 229 230 233 236 233 231 227 226 230 229 229 219 219 225 224 223 223 219 212 206
124 213 306 339 133 283 342 133 355 347 48 143 196 199 116 257 229 311 91 258 155 274 272 288 258 255 196 240 315 289 321 295 30 49 98 57 37 22 358 342 337 340 349 339 321 305 294 287 281 275 269 261 250 247 246 247 231 237 236 234 230 236 232 233 230 232 235 228 234 233 235 234 235 235 237 236 236 226 226 228 224 222 225 219 207 205
120 166 280 332 135 306 23 114 201 201 20 46 76 81 118 101 169 137 201 174 127 244 47 290 39 260 186 211 200 241 255 245 113 117 138 140 183 323 343 337 334 321 300 285 294 296 288 281 267 264 266 269 255 253 249 246 241 236 232 229 234 242 245 245 237 226 234 227 231 241 239 237 234 237 236 232 225 230 233 234 228 228 224 219 205 207
172 141 212 275 295 82 184 201 207 157 158 160 141 196 177 33 228 110 68 135 178 178 182 259 307 269 263 207 176 208 222 235 149 155 180 235 288 294 278 287 283 256 262 271 267 280 296 298 298 284 266 266 278 265 255 231 229 236 232 238 235 235 240 238 236 223 235 217 231 232 237 239 233 239 233 238 228 233 237 234 230 229 226 210 220 198
106 161 181 155 128 228 242 244 177 187 188 178 173 196 179 131 141 158 255 33 106 134 237 151 264 263 252 187 191 182 208 167 164 153 192 222 264 271 277 272 220 281 286 298 304 292 313 301 276 281 294 277 279 279 267 263 258 255 240 242 247 249 250 245 242 226 232 225 232 230 236 234 231 231 228 234 235 236 240 235 229 230 225 225 225 201
150 137 107 177 202 202 218 234 260 238 32 141 163 232 177 167 108 133 189 257 5 247 121 186 22 280 168 189 184 161 139 158 181 141 160 207 204 210 232 216 260 267 334 316 280 224 224 251 313 310 299 297 281 285 290 287 262 255 252 244 237 233 251 236 241 222 221 228 232 237 237 238 234 222 224 229 234 234 236 236 235 219 223 230 227 221
102 96 106 289 311 313 319 318 36 61 171 310 315 108 131 196 177 175 166 185 171 210 203 261 246 261 60 162 158 139 164 168 148 164 151 144 268 302 2 27 11 8 353 341 348 353 349 343 331 329 322 314 308 291 273 259 253 254 253 245 237 238 250 247 234 228 222 227 235 240 244 242 243 229 230 231 234 234 233 223 224 211 224 227 219 221
159 265 141 130 24 339 345 342 353 329 82 183 185 215 175 117 86 132 104 100 195 218 183 162 237 261 313 355 104 36 109 89 93 214 59 15 359 11 11 7 3 354 351 346 341 333 328 327 325 315 311 308 296 284 276 274 264 253 255 246 238 246 253 253 235 224 230 230 239 236 232 244 237 236 235 234 234 236 232 225 222 214 220 217 221 220
166 180 143 161 185 191 206 198 212 218 207 232 210 195 197 161 149 119 218 176 218 254 170 204 243 246 168 28 76 23 15 355 353 359 357 44 40 4 350 336 334 337 330 324 318 320 317 312 309 308 305 307 290 273 279 276 269 267 264 259 249 254 259 254 240 233 232 231 236 242 234 237 231 233 237 237 236 233 228 224 220 218 221 212 219 215
174 170 184 187 193 207 211 206 246 124 95 175 234 176 198 197 183 176 110 176 215 217 188 237 231 263 252 173 102 52 7 346 326 345 354 334 337 307 278 285 295 300 299 298 301 298 308 310 308 307 307 305 302 292 278 280 286 277 266 268 258 246 249 253 239 238 234 237 235 243 242 243 240 235 231 226 225 219 216 218 217 213 219 206 212 212
91 165 224 184 223 228 171 182 192 165 181 203 192 202 191 174 184 178 188 222 205 204 253 230 229 244 262 241 195 255 263 285 275 254 285 302 276 283 295 295 296 299 294 295 301 297 293 297 304 305 306 315 319 323 319 309 288 283 284 283 279 253 243 247 238 240 237 239 240 239 245 241 240 238 239 243 242 229 221 213 211 214 213 198 211 213
145 183 249 134 238 180 165 141 147 127 169 172 176 153 172 189 168 190 214 222 184 202 230 245 158 228 255 267 192 194 241 246 217 213 217 237 283 318 332 311 296 289 289 296 286 300 311 309 305 307 313 317 321 322 321 319 317 310 295 274 270 264 249 239 236 242 239 242 240 241 241 246 245 240 240 236 232 231 228 223 214 206 205 206 214 210
105 263 187 127 168 171 217 175 172 133 158 102 144 174 170 173 202 207 221 227 197 234 265 292 232 245 258 271 108 166 236 268 268 241 212 328 306 290 277 282 284 291 309 316 317 314 309 305 307 307 312 315 315 315 316 317 317 316 315 311 308 294 270 207 232 232 239 237 240 243 246 247 251 241 236 229 229 231 227 220 217 209 206 212 211 209
119 255 107 132 126 242 229 193 149 163 155 216 227 201 204 204 214 215 221 208 138 287 275 272 285 280 265 256 287 238 193 245 278 285 327 90 178 226 237 259 299 330 328 327 326 324 317 313 310 311 314 308 309 308 310 308 307 312 314 311 311 308 300 202 245 235 239 246 244 247 249 249 246 242 239 233 237 233 225 219 208 211 216 215 210 209
109 225 60 90 202 281 237 178 199 139 151 210 249 232 221 216 218 201 200 200 178 230 244 281 283 262 274 126 251 301 121 198 268 300 4 41 216 222 311 341 334 335 340 330 326 327 328 325 323 322 318 315 312 311 309 311 314 315 308 308 307 307 313 270 256 253 253 252 256 252 248 246 248 242 240 234 234 227 218 203 200 208 212 213 212 211
140 113 125 113 217 249 273 78 201 127 117 234 234 237 233 229 223 221 218 198 210 204 219 222 241 249 268 203 274 284 262 205 280 358 148 204 45 50 52 12 339 331 328 323 315 317 315 317 318 316 317 319 319 319 314 314 314 307 305 308 303 314 310 301 278 268 266 263 258 258 251 249 244 243 240 233 231 221 207 203 205 207 204 209 204 181
160 163 212 153 217 236 265 107 108 127 226 237 242 219 198 230 230 230 239 232 225 186 214 227 254 283 285 273 259 273 294 355 117 247 265 90 82 45 30 357 323 307 309 309 299 292 291 299 304 305 301 298 300 302 303 307 301 297 299 297 302 305 303 306 301 286 276 274 265 261 258 250 245 247 244 237 226 212 212 209 216 212 206 198 186 194
175 180 199 177 173 211 128 119 138 217 229 239 67 153 199 215 221 227 236 247 257 237 234 260 259 256 259 263 273 301 331 108 150 164 110 113 100 84 22 332 317 324 314 310 318 321 319 316 311 312 315 315 313 308 312 311 312 311 311 312 310 305 306 304 300 295 284 280 278 270 260 252 246 249 249 234 223 216 218 217 225 218 211 201 197 196
171 175 141 196 137 70 132 166 225 231 240 344 277 235 24 129 223 188 282 269 243 233 223 232 240 250 255 271 336 287 269 301 310 216 145 131 106 88 21 333 321 313 305 295 298 304 311 315 316 312 307 308 314 310 308 301 307 313 306 309 302 301 301 299 297 288 286 286 286 279 269 254 254 251 248 236 227 223 226 221 216 213 203 200 207 211
161 113 148 203 195 208 174 205 228 354 319 293 279 227 158 171 162 167 231 249 224 216 215 229 242 251 274 353 292 317 321 123 110 198 235 145 135 154 169 273 278 283 282 286 272 277 282 286 291 290 294 296 293 297 301 306 314 310 307 308 305 306 302 302 294 289 296 292 283 281 278 260 255 253 243 232 229 231 230 225 221 216 183 198 202 199
148 168 219 184 226 184 204 221 215 227 241 250 231 199 187 167 149 175 173 267 270 260 235 215 237 253 303 303 334 312 320 77 261 206 300 341 36 341 326 263 253 255 258 269 288 283 279 278 285 288 276 282 289 281 291 306 312 311 308 305 306 309 307 306 297 298 299 292 293 293 280 258 247 250 242 228 229 231 235 230 228 213 190 201 196 206
207 177 183 190 200 146 210 213 210 206 236 220 201 196 223 176 148 132 163 246 219 200 257 137 135 178 203 139 323 4 47 309 251 215 265 285 315 318 307 303 283 270 265 260 269 285 288 289 287 293 307 308 311 314 320 317 317 314 307 306 310 311 308 303 300 304 305 302 303 296 282 263 250 245 242 236 234 225 224 212 210 191 177 209 195 207
164 163 142 207 224 208 199 224 235 207 248 269 227 253 181 145 118 114 212 260 199 202 205 146 146 184 222 214 178 62 106 326 279 273 266 296 314 309 301 307 316 313 304 290 272 251 260 276 304 303 299 299 299 309 318 322 320 313 306 304 307 305 297 295 299 300 298 295 294 291 284 265 255 249 241 240 235 219 213 183 152 159 170 183 172 177
178 188 192 204 207 223 222 251 273 272 267 184 157 150 165 144 82 160 218 216 182 202 206 168 196 199 175 170 168 31 232 194 225 266 317 317 326 320 315 297 278 275 290 301 299 298 283 258 243 265 273 281 288 298 308 312 311 303 302 301 305 294 290 295 298 296 294 292 290 289 281 273 252 256 254 239 230 209 179 170 171 160 161 164 158 154
205 196 189 208 224 222 221 231 244 278 233 191 239 178 165 92 219 210 232 158 148 195 212 176 199 213 170 173 189 194 231 258 280 310 307 303 291 285 288 297 310 313 294 278 278 286 299 305 291 284 284 258 253 260 280 298 300 298 299 299 287 282 292 298 294 292 291 288 285 286 286 278 274 260 248 230 145 150 175 183 163 169 162 157 157 158
182 184 186 200 199 219 187 221 226 242 270 121 140 45 168 182 226 164 136 55 154 163 169 210 199 225 160 229 223 228 280 302 297 297 296 294 300 304 311 317 321 318 320 326 329 330 332 323 323 319 314 316 319 301 276 264 277 286 290 286 284 295 299 291 289 289 288 290 292 295 297 298 267 250 177 183 181 161 166 175 158 162 156 152 150 150
177 175 186 217 179 183 195 203 210 226 148 234 160 195 206 196 165 141 130 147 222 158 170 190 237 224 193 205 262 282 235 265 309 317 318 311 306 309 303 299 296 304 313 313 304 307 320 316 315 315 310 311 311 314 315 315 303 295 288 281 289 295 292 290 283 288 289 293 299 309 314 314 310 278 177 162 147 145 150 165 167 158 167 157 151 150
207 199 176 193 177 180 204 214 220 142 128 186 148 175 142 141 138 157 117 144 153 226 179 151 214 237 213 204 235 247 291 279 285 295 310 308 318 321 323 319 318 316 315 315 315 314 317 314 311 313 312 311 315 313 311 302 299 301 296 293 313 299 298 292 291 288 285 292 306 309 309 335 351 325 212 183 161 150 153 151 159 151 177 151 152 154
324 176 152 114 245 37 312 163 168 65 127 132 75 74 127 94 76 118 119 119 196 146 160 129 106 155 238 206 211 286 321 329 333 322 320 315 316 314 313 314 317 319 319 320 321 325 320 317 311 309 308 308 312 313 308 309 296 294 291 302 306 299 294 291 288 282 274 288 298 302 309 308 347 11 42 165 179 173 171 163 168 163 169 158 159 155
250 153 88 163 267 153 238 151 147 169 148 271 37 45 52 67 148 167 147 97 54 52 77 69 77 42 16 35 6 317 317 334 325 312 313 316 317 313 313 309 308 311 316 316 313 317 315 316 312 310 311 307 309 315 303 305 297 277 285 295 300 302 297 288 278 275 273 264 277 294 302 242 258 276 14 103 110 129 153 163 161 162 167 170 160 159
304 196 158 208 182 172 240 175 205 266 275 55 132 106 79 63 10 37 67 81 100 90 78 69 90 69 58 26 334 344 311 326 327 312 315 311 311 311 313 315 317 319 315 314 311 316 313 308 304 301 301 300 303 308 299 294 290 289 289 290 295 296 295 284 274 271 267 257 244 240 246 241 246 227 208 215 174 152 151 172 174 171 178 177 175 167
202 94 216 187 204 262 350 302 291 7 344 41 52 57 207 164 90 63 57 56 56 53 36 38 49 67 74 44 349 329 320 312 315 306 307 308 312 313 310 309 306 303 303 311 312 312 308 306 305 300 298 295 300 302 300 296 291 289 287 286 293 291 284 276 276 273 270 260 234 223 203 207 234 233 216 210 205 213 203 179 182 182 192 229 209 192
85 206 188 104 185 216 200 203 146 131 235 168 114 152 69 57 100 95 68 56 48 43 25 26 20 50 60 34 12 349 344 315 325 322 310 303 299 304 308 309 308 308 307 302 299 296 296 296 295 300 301 299 302 300 296 295 293 288 282 283 281 273 265 272 273 270 266 263 247 234 196 188 210 242 247 233 205 150 37 48 141 163 161 166 139 118
192 198 146 179 186 230 230 216 185 155 157 166 154 154 54 42 91 86 79 82 59 43 15 24 3 20 54 14 16 50 351 327 316 319 310 306 305 306 304 305 310 314 313 317 318 316 314 309 306 301 300 301 309 307 303 296 292 291 286 278 269 248 250 256 265 262 261 260 254 243 211 189 181 219 232 238 220 201 157 108 94 118 123 127 127 136